Database: COMPET-N - COOP - 3PL - 4PL - CNDOOM

WAD: Doom | Doom 2 | TNT | Plutonia | AV | HR | Scythe | MM | MM2 | Requiem | CE
Category: speed | nmare | max | nm100s | tyson | pacifist | fast | respawn | nomo | misc | built | all
Highscore: ALL | IWAD | PWAD | Country | Continent

< Previous map       Next map >
Remove: wad | map | category | player | allE1M7
MapPlayerTimeDateFilenameCommentsDL
E1M7: Computer StationDrew DeVore1:15.002002-10-13e1m7-115.zip - 343
E1M7: Computer StationAdam Williamson1:18.002000-12-28e1m7-118.zip - 178
E1M7: Computer StationVincent Catalaa1:20.001999-11-27e1m7-120.zip - 149
E1M7: Computer StationAdam Williamson1:24.001999-11-28e1m7-124.zip - 165
E1M7: Computer StationAdam Williamson1:26.001999-11-25e1m7-126.zip - 184
E1M7: Computer StationAnders Johnsen1:28.001999-01-14e1m7-128.zip - 145
E1M7: Computer StationAnders Johnsen1:35.001998-08-13e1m7-135.zip - 152
E1M7: Computer StationAndreas Kren1:37.001997-01-04e1m7-137.zip - 136
E1M7: Computer StationEelco de Vries3:37.001995-06-29e1m7-337.zip - 89
E1M7: Computer StationJonathan Weeks3:42.001995-06-20e1m7-342.zip - 105
E1M7: Computer StationEelco de Vries5:34.001995-06-07e1m7-534.zip - 92
E1M7: Computer StationJonathan Matthies6:07.001994-12-14e1m7-607.zip - 307
E1M7: Computer StationVincent Catalaa1:32.002001-11-21n1m7-132.zip - 252
E1M7: Computer StationAdam Williamson1:38.002001-11-21n1m7-138.zip - 165
E1M7: Computer StationDrew DeVore1:41.002001-11-21n1m7-141.zip - 153
E1M7: Computer StationAdam Williamson1:42.002001-11-21n1m7-142.zip - 154
E1M7: Computer StationDrew DeVore1:43.002001-11-17n1m7-143.zip - 150
E1M7: Computer StationAdam Williamson1:45.002001-04-16n1m7-145.zip - 157
E1M7: Computer StationAdam Williamson1:54.002001-04-16n1m7-154.zip - 160
E1M7: Computer StationAnders Johnsen1:59.001998-09-01n1m7-159.zip - 95
E1M7: Computer StationJohn Keniry2:54.001997-07-13n1m7-254.zip - 121
E1M7: Computer StationAndreas Kren3:32.001997-02-22n1m7-332.zip - 100
E1M7: Computer StationDavorin Meštrić4:46.001995-12-04dme1m7nm.zip - 95
E1M7: Computer StationHi Jango2:19.002005-09-04e1m7-219.zip - 326
E1M7: Computer StationHi Jango2:23.002005-08-08e1m7-223.zip - 438
E1M7: Computer StationJuho Ruohonen2:24.002002-12-30e1m7-224.zip - 166
E1M7: Computer StationDrew DeVore2:31.002002-07-28e1m7-231.zip - 162
E1M7: Computer StationJuho Ruohonen2:33.002001-08-20e1m7-233.zip - 173
E1M7: Computer StationRadek Pecka2:41.002001-06-18e1m7-241.zip - 151
E1M7: Computer StationJuho Ruohonen2:42.002001-02-11e1m7-242.zip - 172
E1M7: Computer StationJonathan Rimmer2:55.002000-07-08e1m7-255.zip - 107
E1M7: Computer StationAnders Johnsen2:59.001999-05-24e1m7-259.zip - 128
E1M7: Computer StationAdam Williamson3:11.001999-05-21e1m7-311.zip - 151
E1M7: Computer StationAnders Johnsen3:12.001998-08-11e1m7-312.zip - 106
E1M7: Computer StationPeo Sjoblom3:23.001997-06-27e1m7-323.zip - 93
E1M7: Computer StationWade Cayton3:51.001996-03-01e1m7-351.zip - 80
E1M7: Computer StationAndreas Kren4:29.001995-12-02e1m7-429.zip - 105
E1M7: Computer StationThomas Zajic5:11.001995-10-01e1m7-511.zip - 89
E1M7: Computer StationEelco de Vries6:13.001995-06-30e1m7-613.zip - 77
E1M7: Computer StationEelco de Vries8:24.001995-06-03e1m7-824.zip - 81
E1M7: Computer StationEelco de Vries8:53.001996-05-16e1m7-853.zip - 85
E1M7: Computer StationGuillaume Pierson1:51.002008-10-23n1s7-151.zip - 320
E1M7: Computer StationRadek Pecka1:53.002002-10-03n1s7-153.zip - 138
E1M7: Computer StationJim Leonard1:58.002002-09-21n1s7-158.zip - 194
E1M7: Computer StationJim Leonard2:01.002002-09-20n1s7-201.zip - 205
E1M7: Computer StationJan Vida2:02.002002-09-19n1s7-202.zip - 150
E1M7: Computer StationJim Leonard2:08.002002-09-15n1s7-208.zip - 218
E1M7: Computer StationSteffen Udluft2:18.001999-08-05n1s7-218.zip - 101
E1M7: Computer StationRobert J. Reevy2:38.001999-07-30n1s7-238.zip - 98
E1M7: Computer StationSteffen Udluft2:56.001999-07-27n1s7-256.zip - 110
E1M7: Computer StationAndreas Kren4:51.001996-08-23n1s7-451.zip - 96
E1M7: Computer StationJim Leonard4:07.002003-04-05t1m7-407.zip - 284
E1M7: Computer StationRadek Pecka4:25.002002-06-18t1m7-425.zip - 147
E1M7: Computer StationJim Leonard4:28.002002-05-30t1m7-428.zip - 183
E1M7: Computer StationRadek Pecka4:47.002001-06-20t1m7-447.zip - 141
E1M7: Computer StationAnders Johnsen4:49.001999-03-09t1m7-449.zip - 126
E1M7: Computer StationSteffen Udluft5:54.001999-03-06t1m7-554.zip - 123
E1M7: Computer StationAnders Johnsen6:13.001999-03-01t1m7-613.zip - 141
E1M7: Computer StationPatrick Martin8:06.001997-05-29t1m7-806.zip - 114
E1M7: Computer StationDrew DeVore1:46.002003-05-01p1m7-146.zip - 270
E1M7: Computer StationAdam Williamson1:51.001999-12-20p1m7-151.zip - 140
E1M7: Computer StationSteffen Udluft33:08.001999-03-21p1m73308.zip - 116
E1M7: Computer StationJuho Ruohonen2:28.002003-12-20f1m7-228.zip - 265
E1M7: Computer StationRadek Pecka2:40.002003-06-22f1m7-240.zip - 153
E1M7: Computer StationJuho Ruohonen2:45.002002-05-06f1m7-245.zip - 170
E1M7: Computer StationRadek Pecka3:12.002001-01-14f1m7-312.zip - 155
E1M7: Computer StationAnders Johnsen3:14.001999-05-24f1m7-314.zip - 124
E1M7: Computer StationAdam Williamson3:46.001999-05-21f1m7-346.zip - 159
E1M7: Computer StationAnders Johnsen3:48.001998-09-07f1m7-348.zip - 124
E1M7: Computer StationPeo Sjoblom4:26.001997-03-31f1m7-426.zip - 113
E1M7: Computer StationHi Jango2:26.002005-08-14r1m7-226.zip - 319
E1M7: Computer StationRadek Pecka2:31.002000-11-15r1m7-231.zip - 136
E1M7: Computer StationJan Endre Jansen2:33.001999-04-20r1m7-233.zip - 88
E1M7: Computer StationArno Slagboom2:42.001999-04-05r1m7-242.zip - 106
E1M7: Computer StationJan Endre Jansen2:44.001999-03-08r1m7-244.zip - 90
E1M7: Computer StationArno Slagboom2:56.001999-02-28r1m7-256.zip - 114
E1M7: Computer StationJan Endre Jansen2:57.001998-11-02r1m7-257.zip - 98
E1M7: Computer StationSteffen Udluft3:01.001998-10-23r1m7-301.zip - 92
E1M7: Computer StationDonatas Tamonis3:04.001998-10-19r1m7-304.zip - 82
E1M7: Computer StationSteffen Udluft3:05.001998-10-21r1m7-305.zip - 120
E1M7: Computer StationDonatas Tamonis3:10.001998-10-20r1m7-310.zip - 80
E1M7: Computer StationSteffen Udluft3:11.001998-10-18r1m7-311.zip - 94
E1M7: Computer StationDonatas Tamonis3:26.001998-10-15r1m7-326.zip - 73
E1M7: Computer StationSteffen Udluft3:37.001998-07-28r1m7-337.zip - 95
E1M7: Computer StationThomas Pilger4:08.001998-07-20r1m7-408.zip - 94
E1M7: Computer StationSimon Widlake4:27.001996-07-23r1m7-427.zip - 109
E1M7: Computer StationArno Slagboom1:07.832000-05-07u1710783.zip - 229
Remove: wad | map | category | player | all